Date String (YYYY-MM-DD hh:mm:ss) UTC,Instrument flags,Ambient pressure (hPa),Sample flow (lpm),Bypass flow (lpm),Sample temperature (°C),Ambient temperature (°C),ASC tube jacket temperature (°C),LED temperature (°C),Box temperature (°C),Sample RH (%),Span deviation,Mass concentration (μg/m³),Mass concentration (μg/m³),Mass concentration (μg/m³)
DateTimeUTC,F1_M11,P_M11,Q1_M11,Q2_M11,T1_M11,T2_M11,T3_M11,T4_M11,T5_M11,U1_M11,ZSPAN_M11,X0_M11,X2_M11,X1_M11
2021-10-13 02:00:00,,0813.5,5.00,0.00,27.6,26.7,00.0,37.0,29.3,17.0,0000.0,0003.81,0001.08,0000.40
2021-10-13 02:01:00,,0813.5,5.00,0.00,27.6,26.7,00.0,37.0,29.3,17.0,0000.0,0003.14,0001.13,0000.41
2021-10-13 02:02:00,,0813.6,5.01,0.00,27.6,26.7,00.0,36.9,29.3,17.1,0000.0,0003.18,0001.15,0000.42
2021-10-13 02:03:00,,0813.8,4.99,0.00,27.6,26.6,00.0,36.9,29.2,17.1,0000.0,0003.28,0001.19,0000.44
2021-10-13 02:04:00,,0813.6,5.00,0.00,27.5,26.6,00.0,36.9,29.2,17.2,0000.0,0003.45,0001.24,0000.45
2021-10-13 02:05:00,,0814.1,5.00,0.00,27.5,26.6,00.0,36.9,29.2,17.2,0000.0,0003.57,0001.26,0000.44
2021-10-13 02:06:00,,0814.2,4.99,0.00,27.5,26.6,00.0,36.9,29.2,17.2,0000.0,0003.06,0001.18,0000.43
2021-10-13 02:07:00,,0814.0,5.01,0.00,27.5,26.5,00.0,36.8,29.2,17.2,0000.0,0002.87,0001.12,0000.43
2021-10-13 02:08:00,,0814.0,5.00,0.00,27.4,26.5,00.0,36.8,29.1,17.3,0000.0,0002.70,0001.05,0000.42
2021-10-13 02:09:00,,0814.3,5.00,0.00,27.4,26.5,00.0,36.8,29.1,17.3,0000.0,0002.64,0001.03,0000.42
2021-10-13 02:10:00,,0814.3,5.00,0.00,27.4,26.5,00.0,36.8,29.1,17.3,0000.0,0002.54,0001.01,0000.42
2021-10-13 02:11:00,,0813.8,4.99,0.00,27.4,26.5,00.0,36.7,29.1,17.4,0000.0,0002.45,0000.97,0000.42
2021-10-13 02:12:00,,0813.6,5.01,0.00,27.4,26.5,00.0,36.7,29.1,17.4,0000.0,0002.34,0000.93,0000.42
2021-10-13 02:13:00,,0813.6,4.99,0.00,27.3,26.5,00.0,36.7,29.0,17.4,0000.0,0002.28,0000.91,0000.44
2021-10-13 02:14:00,,0813.6,5.01,0.00,27.3,26.5,00.0,36.7,29.0,17.4,0000.0,0002.35,0000.90,0000.44
2021-10-13 02:15:00,,0813.5,4.99,0.00,27.3,26.4,00.0,36.7,29.0,17.5,0000.0,0002.30,0000.90,0000.45
2021-10-13 02:16:00,,0813.5,4.99,0.00,27.3,26.4,00.0,36.6,29.0,17.5,0000.0,0002.50,0001.01,0000.47
2021-10-13 02:17:00,,0813.6,5.01,0.00,27.3,26.4,00.0,36.6,29.0,17.5,0000.0,0002.70,0001.09,0000.48
2021-10-13 02:18:00,,0813.5,5.00,0.00,27.3,26.4,00.0,36.6,29.0,17.5,0000.0,0002.66,0001.18,0000.50
2021-10-13 02:19:00,,0813.2,4.99,0.00,27.3,26.4,00.0,36.6,29.0,17.5,0000.0,0002.79,0001.25,0000.52
2021-10-13 02:20:00,,0813.3,4.99,0.00,27.3,26.4,00.0,36.6,29.0,17.4,0000.0,0003.09,0001.31,0000.54
2021-10-13 02:21:00,,0813.4,5.01,0.00,27.3,26.4,00.0,36.6,29.0,16.8,0000.0,0003.18,0001.34,0000.55
2021-10-13 02:22:00,,0813.4,5.01,0.00,27.3,26.4,00.0,36.6,29.0,16.3,0000.0,0003.26,0001.39,0000.55
2021-10-13 02:23:00,,0813.3,5.00,0.00,27.3,26.4,00.0,36.5,29.0,16.9,0000.0,0003.30,0001.42,0000.57
2021-10-13 02:24:00,,0813.4,5.00,0.00,27.3,26.4,00.0,36.5,29.0,17.0,0000.0,0003.41,0001.46,0000.58
2021-10-13 02:25:00,,0813.5,4.99,0.00,27.3,26.4,00.0,36.5,29.0,16.9,0000.0,0003.47,0001.54,0000.58
2021-10-13 02:26:00,,0813.4,4.99,0.00,27.2,26.4,00.0,36.5,29.0,17.0,0000.0,0003.95,0001.67,0000.59
2021-10-13 02:27:00,,0813.5,5.01,0.00,27.2,26.4,00.0,36.5,29.0,17.0,0000.0,0003.96,0001.67,0000.59
2021-10-13 02:28:00,,0813.5,5.00,0.00,27.3,26.4,00.0,36.5,29.0,17.0,0000.0,0003.80,0001.61,0000.59
2021-10-13 02:29:00,,0813.4,4.99,0.00,27.3,26.4,00.0,36.5,29.0,17.0,0000.0,0003.76,0001.58,0000.60
2021-10-13 02:30:00,,0813.4,4.99,0.00,27.3,26.3,00.0,36.5,29.0,17.1,0000.0,0003.84,0001.60,0000.61
2021-10-13 02:31:00,,0813.4,5.01,0.00,27.3,26.4,00.0,36.5,29.0,17.1,0000.0,0003.74,0001.62,0000.61
2021-10-13 02:32:00,,0813.5,4.99,0.00,27.3,26.4,00.0,36.5,29.1,17.0,0000.0,0003.82,0001.65,0000.62
2021-10-13 02:33:00,,0813.4,5.01,0.00,27.3,26.4,00.0,36.5,29.1,17.0,0000.0,0003.91,0001.69,0000.64
2021-10-13 02:34:00,,0813.4,5.00,0.00,27.3,26.4,00.0,36.5,29.1,17.0,0000.0,0004.10,0001.72,0000.64
2021-10-13 02:35:00,,0813.4,4.98,0.00,27.3,26.4,00.0,36.4,29.1,17.1,0000.0,0004.02,0001.70,0000.64
2021-10-13 02:36:00,,0813.4,5.00,0.00,27.3,26.4,00.0,36.4,29.0,17.0,0000.0,0005.06,0001.63,0000.64
2021-10-13 02:37:00,,0813.4,5.00,0.00,27.3,26.4,00.0,36.5,29.0,17.0,0000.0,0004.88,0001.56,0000.65
2021-10-13 02:38:00,,0813.4,5.01,0.00,27.3,26.4,00.0,36.4,29.1,17.0,0000.0,0004.95,0001.54,0000.66
2021-10-13 02:39:00,,0813.4,4.99,0.00,27.3,26.4,00.0,36.4,29.1,17.0,0000.0,0005.82,0001.64,0000.67
2021-10-13 02:40:00,,0813.5,5.00,0.00,27.3,26.5,00.0,36.4,29.1,17.0,0000.0,0005.92,0001.67,0000.67
2021-10-13 02:41:00,,0813.5,5.01,0.00,27.3,26.5,00.0,36.4,29.1,17.0,0000.0,0006.14,0001.75,0000.68
2021-10-13 02:42:00,,0813.4,4.99,0.00,27.3,26.5,00.0,36.4,29.1,16.9,0000.0,0006.41,0001.76,0000.68
2021-10-13 02:43:00,,0813.4,5.01,0.00,27.3,26.5,00.0,36.4,29.1,16.4,0000.0,0006.70,0001.83,0000.67
2021-10-13 02:44:00,,0813.4,4.99,0.00,27.4,26.5,00.0,36.5,29.1,16.5,0000.0,0006.87,0001.86,0000.66
2021-10-13 02:45:00,,0813.4,5.01,0.00,27.3,26.4,00.0,36.5,29.1,16.5,0000.0,0006.81,0001.87,0000.67
2021-10-13 02:46:00,,0813.5,5.00,0.00,27.3,26.4,00.0,36.5,29.1,16.6,0000.0,0006.98,0001.94,0000.67
2021-10-13 02:47:00,,0813.5,5.00,0.00,27.3,26.4,00.0,36.5,29.1,16.6,0000.0,0005.83,0001.99,0000.68
2021-10-13 02:48:00,,0813.5,4.99,0.00,27.3,26.4,00.0,36.4,29.1,16.5,0000.0,0005.88,0002.02,0000.69
2021-10-13 02:49:00,,0813.5,5.00,0.00,27.3,26.4,00.0,36.5,29.1,16.3,0000.0,0005.71,0002.02,0000.68
2021-10-13 02:50:00,,0813.6,4.99,0.00,27.3,26.4,00.0,36.5,29.1,16.2,0000.0,0005.49,0002.05,0000.69
2021-10-13 02:51:00,,0813.6,4.99,0.00,27.3,26.5,00.0,36.5,29.1,16.0,0000.0,0006.46,0002.08,0000.68
2021-10-13 02:52:00,,0814.1,5.00,0.00,27.3,26.5,00.0,36.5,29.1,16.0,0000.0,0008.08,0002.11,0000.70
2021-10-13 02:53:00,,0814.1,5.01,0.00,27.3,26.5,00.0,36.5,29.1,16.2,0000.0,0008.01,0002.15,0000.71
2021-10-13 02:54:00,,0813.9,4.99,0.00,27.4,26.5,00.0,36.5,29.1,16.4,0000.0,0007.93,0002.15,0000.72
2021-10-13 02:55:00,,0813.8,5.00,0.00,27.4,26.5,00.0,36.5,29.2,16.6,0000.0,0008.17,0002.11,0000.73
2021-10-13 02:56:00,,0813.9,4.99,0.00,27.4,26.5,00.0,36.5,29.2,16.7,0000.0,0008.50,0002.12,0000.74
2021-10-13 02:57:00,,0813.9,5.00,0.00,27.3,26.5,00.0,36.5,29.1,16.7,0000.0,0008.51,0002.06,0000.73
2021-10-13 02:58:00,,0813.9,5.00,0.00,27.3,26.5,00.0,36.4,29.1,16.8,0000.0,0008.56,0002.03,0000.72
2021-10-13 02:59:00,,0814.0,5.00,0.00,27.3,26.5,00.0,36.4,29.1,16.9,0000.0,0008.80,0001.98,0000.71
